sat.trackr.live / text

‹ back to catalog

FLAMINGO-1

NORAD 67391 · 2026-004AE

PAYLOAD ACTIVE UNKNOWN

§ Identity

Operator
Country
GER
Launch date
2026-01-11
Launch site
AFWTR
Launch vehicle
Mass (kg)
RCS (m²)

External: N2YO · Heavens-Above · Gunter

§ Orbital elements

Epoch: 2026-05-24T22:44:30.345216Z

Period
94.88 min
Inclination
97.4545°
Eccentricity
0.0006430
Mean motion
15.17719502 rev/d
Perigee alt
508.3 km
Apogee alt
517.2 km
Semi-major
6,890.9 km
B*
7.8064e-5
RAAN
144.2162°
Arg perigee
59.2043°
Mean anomaly
300.9823°
Rev number
2,022

§ Raw data

FLAMINGO-11 67391U 26004AE  26144.94757344  .00001508  00000+0  78064-4 0  99902 67391  97.4545 144.2162 0006430  59.2043 300.9823 15.17719502 20227

JSON: /api/v1/satellites/67391 · /tle

For live sub-satellite position, see the globe view (requires WebGL).

§ Visibility from observer

Set your observer location to see the next 7 days of passes ≥ 10°. The values pass through the URL so the page stays shareable.

No JS? Fill the form by hand. The geolocation button needs JavaScript.

§ Radio — SatNOGS DB

ModeDescriptionDownlinkUplink
FM Mode S - Transmitter 2.240 GHz
GMSK UHF 9k6 Telemetry 401.050 MHz

2 transmitters · refreshed weekly from db.satnogs.org